FW4399 Weather Reports


time (UTC)temp
C
wind
direction
speed
KPH
gust
KPH
rain 1hr
cm
rain 24hr
cm
rain mn
cm
humidity
%
barometer
mb
20260507113033 17 152 8.0 0.0 0.00 0.00 0.03 56 1012.1
20260507111545 15 199 4.8 0.0 0.00 0.00 0.03 57 1012.1
20260507110027 16 179 6.4 0.0 0.00 0.00 0.03 60 1012.1
20260507104634 16 156 4.8 0.0 0.00 0.00 0.03 58 1012.1
20260507103028 15 246 8.0 0.0 0.00 0.00 0.03 55 1012.3
20260507101607 15 178 6.4 0.0 0.00 0.00 0.03 64 1012.3
20260507100022 13 188 6.4 0.0 0.00 0.00 0.03 66 1012.3
20260507094622 13 195 6.4 0.0 0.00 0.00 0.03 68 1012.2
20260507093132 13 166 4.8 0.0 0.00 0.00 0.03 70 1012.2
20260507091622 13 143 6.4 0.0 0.00 0.00 0.03 70 1012.3
20260507090019 12 177 6.4 0.0 0.00 0.00 0.03 76 1012.3
20260507084541 11 165 4.8 0.0 0.00 0.00 0.03 78 1012.2
20260507083141 11 170 6.4 0.0 0.00 0.00 0.03 73 1012.5
20260507081516 11 153 8.0 0.0 0.00 0.00 0.03 77 1012.5
20260507080051 11 163 8.0 0.0 0.00 0.00 0.03 74 1012.5
20260507074524 11 133 4.8 0.0 0.00 0.00 0.03 81 1012.6
20260507073032 10 165 8.0 0.0 0.00 0.00 0.03 82 1012.6
20260507071539 10 158 8.0 0.0 0.00 0.00 0.03 87 1012.5
20260507070141 9 147 4.8 0.0 0.00 0.00 0.03 91 1012.2
20260507064603 8 98 3.2 0.0 0.00 0.00 0.03 95 1012.0
20260507063135 7 69 1.6 0.0 0.00 0.00 0.03 95 1011.6
20260507061540 6 33 0.0 0.0 0.00 0.00 0.03 95 1011.5
20260507060038 5 34 1.6 0.0 0.00 0.00 0.03 94 1011.5
20260507054646 5 4 1.6 0.0 0.00 0.00 0.03 94 1011.4
20260507053142 5 332 1.6 0.0 0.00 0.00 0.03 94 1011.3
20260507051628 4 331 0.0 0.0 0.00 0.00 0.03 94 1011.2
20260507050026 4 331 0.0 0.0 0.00 0.00 0.03 93 1011.1
20260507044603 4 331 1.6 0.0 0.00 0.00 0.03 93 1011.0
20260507043135 4 13 4.8 0.0 0.00 0.00 0.03 93 1011.0
20260507041526 4 15 3.2 0.0 0.00 0.00 0.03 93 1011.0
20260507040126 4 15 3.2 0.0 0.00 0.00 0.03 93 1011.0
20260507034525 4 15 3.2 0.0 0.00 0.00 0.03 92 1010.8
20260507033039 5 15 4.8 0.0 0.00 0.00 0.03 92 1010.7
20260507031640 5 121 3.2 0.0 0.00 0.00 0.03 92 1010.7
20260507030138 5 125 0.0 0.0 0.00 0.00 0.03 92 1010.6
20260507024649 5 125 3.2 0.0 0.00 0.00 0.03 92 1010.6
20260507023011 6 127 0.0 0.0 0.00 0.00 0.03 92 1010.6
20260507021501 6 127 1.6 0.0 0.00 0.00 0.03 92 1010.6
20260507020027 6 127 3.2 0.0 0.00 0.00 0.03 92 1010.5
20260507014541 6 129 0.0 0.0 0.00 0.00 0.03 92 1010.6
20260507013142 6 129 0.0 0.0 0.00 0.00 0.03 92 1010.6
20260507011639 6 129 0.0 0.0 0.00 0.00 0.03 92 1010.6
20260507010037 6 129 0.0 0.0 0.00 0.00 0.03 92 1010.7
20260507004623 7 129 1.6 0.0 0.00 0.00 0.03 92 1010.6
20260507003012 7 129 4.8 0.0 0.00 0.00 0.03 92 1010.6
20260507001547 7 139 3.2 0.0 0.00 0.00 0.03 92 1010.6
20260507000141 7 51 0.0 0.0 0.00 0.00 0.03 92 1010.9
20260506234537 7 51 0.0 0.0 0.00 0.00 0.00 92 1010.9
20260506233128 7 51 0.0 0.0 0.00 0.00 0.00 92 1011.0
20260506231527 7 51 1.6 0.0 0.00 0.00 0.00 91 1011.0
20260506230053 7 51 3.2 0.0 0.00 0.00 0.00 91 1011.0
20260506224551 7 53 3.2 0.0 0.00 0.00 0.15 91 1010.9
20260506223129 7 49 3.2 0.0 0.00 0.00 0.15 90 1011.0
20260506221646 7 43 4.8 0.0 0.00 0.00 0.10 90 1010.9
20260506220006 7 30 6.4 0.0 0.00 0.00 0.08 89 1010.9
20260506214648 7 27 6.4 0.0 0.00 0.00 0.05 88 1010.8
20260506213102 7 31 6.4 0.0 0.00 0.00 0.05 87 1010.8
20260506211620 7 12 4.8 0.0 0.00 0.00 0.05 87 1010.7
20260506210113 7 20 6.4 0.0 0.00 0.00 0.05 87 1010.5
20260506204549 6 24 8.0 0.0 0.00 0.00 0.05 86 1010.5
20260506203018 6 7 8.0 0.0 0.00 0.00 0.05 87 1010.4
20260506201600 6 13 6.4 0.0 0.00 0.00 0.05 87 1010.3
20260506200052 6 1 8.0 0.0 0.00 0.00 0.05 87 1010.5
20260506194554 6 351 9.7 0.0 0.00 0.00 0.05 87 1010.4
20260506193135 6 3 9.7 0.0 0.00 0.00 0.05 87 1010.3
20260506191613 7 32 11.3 0.0 0.00 0.00 0.05 87 1010.3
20260506190136 7 1 12.9 0.0 0.00 0.00 0.05 87 1010.2
20260506184608 7 342 14.5 0.0 0.00 0.00 0.05 88 1010.2
20260506183105 7 0 12.9 0.0 0.00 0.00 0.05 88 1010.1
20260506181638 7 13 16.1 0.0 0.00 0.00 0.05 87 1010.0
20260506180041 7 4 16.1 0.0 0.00 0.00 0.05 88 1009.9
20260506174610 7 351 16.1 0.0 0.00 0.00 0.05 89 1009.7
20260506173034 7 11 16.1 0.0 0.00 0.00 0.05 89 1009.6
20260506171623 7 16 14.5 0.0 0.00 0.00 0.05 89 1009.5
20260506170137 7 357 16.1 0.0 0.00 0.00 0.05 88 1009.5
20260506164640 7 356 16.1 0.0 0.00 0.00 0.05 88 1009.5
20260506163101 8 11 16.1 0.0 0.00 0.00 0.05 89 1009.5
20260506161600 8 359 14.5 0.0 0.00 0.00 0.05 89 1009.4
20260506160020 7 6 14.5 0.0 0.00 0.00 0.05 89 1009.5
20260506154535 8 344 14.5 0.0 0.00 0.00 0.05 90 1009.5
20260506153145 8 359 16.1 0.0 0.00 0.00 0.05 90 1009.5
20260506151644 8 25 14.5 0.0 0.00 0.00 0.05 89 1009.5
20260506150129 8 359 14.5 0.0 0.00 0.00 0.05 89 1009.5
20260506144531 8 345 12.9 0.0 0.00 0.00 0.03 87 1009.5
20260506143026 9 23 12.9 0.0 0.00 0.00 0.00 85 1009.5
20260506141553 10 20 16.1 0.0 0.00 0.00 0.00 81 1009.5
20260506140005 11 357 16.1 0.0 0.00 0.00 0.00 75 1009.5
20260506134531 11 18 17.7 0.0 0.00 0.00 0.00 74 1009.6
20260506133044 12 30 14.5 0.0 0.00 0.00 0.00 70 1009.5
20260506131643 12 8 17.7 0.0 0.00 0.00 0.00 69 1009.5
20260506130014 13 352 17.7 0.0 0.00 0.00 0.00 63 1009.4
20260506124550 13 359 17.7 0.0 0.00 0.00 0.00 61 1009.3
20260506123131 15 352 14.5 0.0 0.00 0.00 0.00 56 1009.1
20260506121522 13 350 14.5 0.0 0.00 0.00 0.00 59 1009.0
20260506120043 13 338 14.5 0.0 0.00 0.00 0.00 59 1009.1
20260506114532 13 345 17.7 0.0 0.00 0.00 0.00 58 1009.2